Location: Unspecified
(0.0000°N, 0.0000°E)
Time: 17:04:23
(UTC+00:00)

Transit 2A Rocket - All Passes

Search period start: 12 April 2021 00:00
Search period end: 22 April 2021 00:00
Orbit: 594 x 908 km, 66.7° (Epoch: 11 April)

Date Brightness Start Highest point End Pass type
(mag) Time Alt. Az. Time Alt. Az. Time Alt. Az.
12 Apr - 03:43:28 10° NNW 03:48:29 78° WSW 03:54:00 10° SSE visible
12 Apr - 14:33:45 10° SSE 14:37:23 18° ESE 14:40:48 10° ENE daylight
12 Apr - 16:15:26 10° SW 16:19:44 26° WNW 16:23:44 10° NNW daylight
13 Apr - 03:01:09 10° N 03:05:57 48° ENE 03:11:14 10° SE night (unlit)
13 Apr - 04:47:37 10° WSW 04:48:31 10° WSW 04:49:26 10° WSW visible
13 Apr - 15:32:04 10° SSW 15:37:16 57° WNW 15:41:59 10° N daylight
14 Apr - 02:19:34 10° NNE 02:23:29 23° ENE 02:27:40 10° ESE night (unlit)
14 Apr - 04:01:48 10° WNW 04:05:48 23° WSW 04:10:05 10° SSW night (unlit)
14 Apr - 14:49:26 10° SSW 14:54:44 65° ESE 14:59:31 10° NNE daylight
15 Apr - 01:40:40 10° ENE 01:41:01 10° ENE 01:41:22 10° ENE night (unlit)
15 Apr - 03:18:17 10° NW 03:23:10 47° WSW 03:28:30 10° S night (unlit)
15 Apr - 14:07:30 10° S 14:12:07 29° ESE 14:16:21 10° NE daylight
15 Apr - 15:51:22 10° WSW 15:54:19 15° WNW 15:57:10 10° NW daylight
16 Apr - 02:35:32 10° NNW 02:40:35 81° ENE 02:46:09 10° SSE night (unlit)
16 Apr - 13:26:48 10° SE 13:29:25 14° ESE 13:31:56 10° E daylight
16 Apr - 15:07:11 10° SW 15:11:52 33° WNW 15:16:10 10° N daylight
17 Apr - 01:53:27 10° N 01:58:05 37° ENE 02:03:08 10° SE night (unlit)
17 Apr - 03:37:49 10° W 03:40:33 14° WSW 03:43:25 10° SW night (unlit)
17 Apr - 14:24:06 10° SSW 14:29:22 76° WNW 14:34:09 10° NNE daylight
18 Apr - 01:12:16 10° NNE 01:15:37 18° ENE 01:19:09 10° ESE night (unlit)
18 Apr - 02:53:24 10° NW 02:57:52 29° WSW 03:02:41 10° S night (unlit)
18 Apr - 13:41:43 10° S 13:46:48 48° ESE 13:51:26 10° NE daylight
19 Apr - 02:10:12 10° NNW 02:15:14 63° WSW 02:20:47 10° S night (unlit)
19 Apr - 13:00:06 10° SSE 13:04:10 22° ESE 13:07:57 10° ENE daylight
19 Apr - 14:42:43 10° WSW 14:46:26 20° WNW 14:49:57 10° NNW daylight
20 Apr - 01:27:41 10° N 01:32:41 62° ENE 01:38:12 10° SSE night (unlit)
20 Apr - 13:59:02 10° SW 14:03:59 44° WNW 14:08:30 10° N daylight
21 Apr - 00:45:51 10° NNE 00:50:12 29° ENE 00:54:54 10° SE night (unlit)
21 Apr - 02:28:58 10° WNW 02:32:35 19° WSW 02:36:26 10° SSW night (unlit)
21 Apr - 13:16:12 10° SSW 13:21:28 81° ESE 13:26:13 10° NNE daylight
